Time,TemperatureF,DewpointF,PressureIn,WindDirection,WindDirectionDegrees,WindSpeedMPH,WindSpeedGustMPH,Humidity,HourlyPrecipIn,Conditions,Clouds,dailyrainin,SoftwareType,DateUTC
2013-06-18 00:02:00,68.8,58.6,29.85,NNE,19,5.0,5.0,70,0.00,,,0.00,Wunderground v.1.15,2013-06-18 05:02:00,
2013-06-18 00:08:00,68.7,58.5,29.85,NNE,20,5.0,5.0,70,0.00,,,0.00,Wunderground v.1.15,2013-06-18 05:08:00,
2013-06-18 00:13:00,68.5,58.7,29.85,NNE,13,5.0,5.0,71,0.00,,,0.00,Wunderground v.1.15,2013-06-18 05:13:00,
2013-06-18 00:19:00,68.3,58.5,29.85,NNE,15,5.0,5.0,71,0.00,,,0.00,Wunderground v.1.15,2013-06-18 05:19:00,
2013-06-18 00:24:00,68.0,58.6,29.85,North,5,4.0,5.0,72,0.00,,,0.00,Wunderground v.1.15,2013-06-18 05:24:00,
2013-06-18 00:30:00,67.6,58.6,29.85,North,9,5.0,5.0,73,0.00,,,0.00,Wunderground v.1.15,2013-06-18 05:30:00,
2013-06-18 00:35:00,67.4,58.4,29.85,North,355,5.0,7.0,73,0.00,,,0.00,Wunderground v.1.15,2013-06-18 05:35:00,
2013-06-18 00:42:00,67.5,58.5,29.85,North,9,4.0,5.0,73,0.00,,,0.00,Wunderground v.1.15,2013-06-18 05:42:00,
2013-06-18 00:48:00,67.3,58.7,29.85,NNE,15,4.0,6.0,74,0.00,,,0.00,Wunderground v.1.15,2013-06-18 05:48:00,
2013-06-18 00:54:00,67.4,58.8,29.85,NNE,18,5.0,6.0,74,0.00,,,0.00,Wunderground v.1.15,2013-06-18 05:54:00,
2013-06-18 00:59:00,67.3,58.7,29.85,North,5,5.0,6.0,74,0.00,,,0.00,Wunderground v.1.15,2013-06-18 05:59:00,
2013-06-18 01:04:00,67.0,58.8,29.85,North,5,4.0,5.0,75,0.00,,,0.00,Wunderground v.1.15,2013-06-18 06:04:00,
2013-06-18 01:10:00,67.0,58.8,29.85,North,5,5.0,6.0,75,0.00,,,0.00,Wunderground v.1.15,2013-06-18 06:10:00,
2013-06-18 01:16:00,67.0,58.4,29.85,North,360,7.0,7.0,74,0.00,,,0.00,Wunderground v.1.15,2013-06-18 06:16:00,
2013-06-18 01:22:00,67.0,58.4,29.86,NNE,16,5.0,6.0,74,0.00,,,0.00,Wunderground v.1.15,2013-06-18 06:22:00,
2013-06-18 01:28:00,66.8,58.2,29.86,North,5,7.0,7.0,74,0.00,,,0.00,Wunderground v.1.15,2013-06-18 06:28:00,
2013-06-18 01:33:00,66.6,58.1,29.86,North,5,5.0,5.0,74,0.00,,,0.00,Wunderground v.1.15,2013-06-18 06:33:00,
2013-06-18 01:39:00,66.5,58.0,29.86,NNE,13,5.0,7.0,74,0.00,,,0.00,Wunderground v.1.15,2013-06-18 06:39:00,
2013-06-18 01:45:00,66.5,58.0,29.86,North,5,6.0,6.0,74,0.00,,,0.00,Wunderground v.1.15,2013-06-18 06:45:00,
2013-06-18 01:50:00,66.5,58.0,29.86,North,5,6.0,7.0,74,0.00,,,0.00,Wunderground v.1.15,2013-06-18 06:50:00,
2013-06-18 01:56:00,66.5,58.0,29.86,NNE,17,5.0,6.0,74,0.00,,,0.00,Wunderground v.1.15,2013-06-18 06:56:00,
2013-06-18 02:01:00,66.5,57.6,29.86,North,9,6.0,6.0,73,0.00,,,0.00,Wunderground v.1.15,2013-06-18 07:01:00,
2013-06-18 02:06:00,66.3,57.8,29.86,North,355,5.0,7.0,74,0.00,,,0.00,Wunderground v.1.15,2013-06-18 07:06:00,
2013-06-18 02:12:00,66.1,57.6,29.86,North,5,5.0,5.0,74,0.00,,,0.00,Wunderground v.1.15,2013-06-18 07:12:00,
2013-06-18 02:17:00,65.9,57.4,29.86,NNE,13,5.0,6.0,74,0.00,,,0.00,Wunderground v.1.15,2013-06-18 07:17:00,
2013-06-18 02:22:00,65.7,57.6,29.85,NNE,13,6.0,6.0,75,0.00,,,0.00,Wunderground v.1.15,2013-06-18 07:22:00,
2013-06-18 02:27:00,65.4,57.6,29.85,NNE,22,6.0,8.0,76,0.00,,,0.00,Wunderground v.1.15,2013-06-18 07:27:00,
2013-06-18 02:32:00,65.3,57.5,29.85,NNE,15,5.0,5.0,76,0.00,,,0.00,Wunderground v.1.15,2013-06-18 07:32:00,
2013-06-18 02:37:00,65.2,57.4,29.85,NNE,15,4.0,7.0,76,0.00,,,0.00,Wunderground v.1.15,2013-06-18 07:37:00,
2013-06-18 02:42:00,65.1,57.3,29.85,NNE,13,4.0,5.0,76,0.00,,,0.00,Wunderground v.1.15,2013-06-18 07:42:00,
2013-06-18 02:47:00,65.1,57.3,29.85,NNE,17,5.0,8.0,76,0.00,,,0.00,Wunderground v.1.15,2013-06-18 07:47:00,
2013-06-18 02:52:00,65.2,57.4,29.85,North,355,4.0,6.0,76,0.00,,,0.00,Wunderground v.1.15,2013-06-18 07:52:00,
2013-06-18 02:57:00,65.3,57.5,29.85,NNE,19,3.0,8.0,76,0.00,,,0.00,Wunderground v.1.15,2013-06-18 07:57:00,
2013-06-18 03:02:00,65.2,57.4,29.85,NE,46,4.0,5.0,76,0.00,,,0.00,Wunderground v.1.15,2013-06-18 08:02:00,
2013-06-18 03:07:00,65.0,57.6,29.85,NE,44,1.0,5.0,77,0.00,,,0.00,Wunderground v.1.15,2013-06-18 08:07:00,
2013-06-18 03:12:00,64.7,57.3,29.85,NE,36,2.0,2.0,77,0.00,,,0.00,Wunderground v.1.15,2013-06-18 08:12:00,
2013-06-18 03:17:00,64.4,57.7,29.85,NE,36,2.0,4.0,79,0.00,,,0.00,Wunderground v.1.15,2013-06-18 08:17:00,
2013-06-18 03:22:00,64.1,57.8,29.86,NNE,18,5.0,7.0,80,0.00,,,0.00,Wunderground v.1.15,2013-06-18 08:22:00,
2013-06-18 03:27:00,63.9,57.6,29.86,North,5,2.0,7.0,80,0.00,,,0.00,Wunderground v.1.15,2013-06-18 08:27:00,
2013-06-18 03:32:00,63.7,57.8,29.86,NE,35,1.0,3.0,81,0.00,,,0.00,Wunderground v.1.15,2013-06-18 08:32:00,
2013-06-18 03:38:00,63.5,57.9,29.86,NNE,23,1.0,3.0,82,0.00,,,0.00,Wunderground v.1.15,2013-06-18 08:38:00,
2013-06-18 03:43:00,63.3,57.7,29.86,NE,46,2.0,2.0,82,0.00,,,0.00,Wunderground v.1.15,2013-06-18 08:43:00,
2013-06-18 03:48:00,63.2,57.9,29.86,NE,40,2.0,2.0,83,0.00,,,0.00,Wunderground v.1.15,2013-06-18 08:48:00,
2013-06-18 03:53:00,63.1,58.2,29.87,NE,40,1.0,1.0,84,0.00,,,0.00,Wunderground v.1.15,2013-06-18 08:53:00,
2013-06-18 03:58:00,63.0,58.1,29.87,NE,41,0.0,2.0,84,0.00,,,0.00,Wunderground v.1.15,2013-06-18 08:58:00,
2013-06-18 04:03:00,63.0,58.1,29.87,NE,42,0.0,1.0,84,0.00,,,0.00,Wunderground v.1.15,2013-06-18 09:03:00,
2013-06-18 04:08:00,62.9,58.3,29.87,NE,42,0.0,1.0,85,0.00,,,0.00,Wunderground v.1.15,2013-06-18 09:08:00,
2013-06-18 04:13:00,62.8,58.2,29.87,NNE,32,1.0,2.0,85,0.00,,,0.00,Wunderground v.1.15,2013-06-18 09:13:00,
2013-06-18 04:18:00,62.5,57.9,29.87,North,11,3.0,4.0,85,0.00,,,0.00,Wunderground v.1.15,2013-06-18 09:18:00,
2013-06-18 04:23:00,62.2,57.6,29.87,NNE,19,1.0,3.0,85,0.00,,,0.00,Wunderground v.1.15,2013-06-18 09:23:00,
2013-06-18 04:28:00,62.0,57.8,29.87,NNE,28,1.0,3.0,86,0.00,,,0.00,Wunderground v.1.15,2013-06-18 09:28:00,
2013-06-18 04:33:00,61.8,57.9,29.87,NNE,22,1.0,1.0,87,0.00,,,0.00,Wunderground v.1.15,2013-06-18 09:33:00,
2013-06-18 04:38:00,61.7,57.8,29.87,NNE,22,1.0,4.0,87,0.00,,,0.00,Wunderground v.1.15,2013-06-18 09:38:00,
2013-06-18 04:43:00,61.6,58.0,29.88,NNE,24,2.0,4.0,88,0.00,,,0.00,Wunderground v.1.15,2013-06-18 09:43:00,
2013-06-18 04:48:00,61.5,57.9,29.88,NNE,17,3.0,4.0,88,0.00,,,0.00,Wunderground v.1.15,2013-06-18 09:48:00,
2013-06-18 04:53:00,61.4,57.8,29.88,NNE,14,1.0,2.0,88,0.00,,,0.00,Wunderground v.1.15,2013-06-18 09:53:00,
2013-06-18 04:58:00,61.2,57.9,29.88,NNE,14,2.0,2.0,89,0.00,,,0.00,Wunderground v.1.15,2013-06-18 09:58:00,
2013-06-18 05:04:00,61.1,57.8,29.88,NNE,24,3.0,3.0,89,0.00,,,0.00,Wunderground v.1.15,2013-06-18 10:04:00,
2013-06-18 05:09:00,61.3,58.3,29.89,NNE,15,3.0,3.0,90,0.00,,,0.00,Wunderground v.1.15,2013-06-18 10:09:00,
2013-06-18 05:14:00,61.3,58.0,29.90,NNE,15,2.0,3.0,89,0.00,,,0.00,Wunderground v.1.15,2013-06-18 10:14:00,
2013-06-18 05:19:00,61.1,57.8,29.90,NNE,15,3.0,3.0,89,0.00,,,0.00,Wunderground v.1.15,2013-06-18 10:19:00,
2013-06-18 05:24:00,60.8,57.8,29.90,NNE,12,3.0,3.0,90,0.00,,,0.00,Wunderground v.1.15,2013-06-18 10:24:00,
2013-06-18 05:29:00,60.7,57.7,29.90,NNE,12,1.0,3.0,90,0.00,,,0.00,Wunderground v.1.15,2013-06-18 10:29:00,
2013-06-18 05:34:00,60.6,57.7,29.90,NNE,12,0.0,2.0,90,0.00,,,0.00,Wunderground v.1.15,2013-06-18 10:34:00,
2013-06-18 05:39:00,60.6,58.0,29.91,NNE,12,0.0,2.0,91,0.00,,,0.00,Wunderground v.1.15,2013-06-18 10:39:00,
2013-06-18 05:44:00,60.5,57.9,29.91,NNE,12,2.0,2.0,91,0.00,,,0.00,Wunderground v.1.15,2013-06-18 10:44:00,
2013-06-18 05:49:00,60.5,57.9,29.91,NNE,12,0.0,2.0,91,0.00,,,0.00,Wunderground v.1.15,2013-06-18 10:49:00,
2013-06-18 05:54:00,60.4,57.8,29.91,NNE,12,0.0,1.0,91,0.00,,,0.00,Wunderground v.1.15,2013-06-18 10:54:00,
2013-06-18 05:59:00,60.5,57.9,29.91,NNE,12,1.0,1.0,91,0.00,,,0.00,Wunderground v.1.15,2013-06-18 10:59:00,
2013-06-18 06:04:00,60.6,58.0,29.91,NNE,12,1.0,1.0,91,0.00,,,0.00,Wunderground v.1.15,2013-06-18 11:04:00,
2013-06-18 06:09:00,60.7,58.1,29.91,NNE,25,1.0,2.0,91,0.00,,,0.00,Wunderground v.1.15,2013-06-18 11:09:00,
2013-06-18 06:14:00,60.9,58.6,29.92,ENE,73,1.0,2.0,92,0.00,,,0.00,Wunderground v.1.15,2013-06-18 11:14:00,
2013-06-18 06:19:00,61.2,58.9,29.92,East,91,2.0,2.0,92,0.00,,,0.00,Wunderground v.1.15,2013-06-18 11:19:00,
2013-06-18 06:24:00,61.4,59.1,29.92,NE,44,1.0,1.0,92,0.00,,,0.00,Wunderground v.1.15,2013-06-18 11:24:00,
2013-06-18 06:29:00,61.7,59.0,29.93,NE,47,0.0,2.0,91,0.00,,,0.00,Wunderground v.1.15,2013-06-18 11:29:00,
2013-06-18 06:34:00,62.0,59.3,29.93,NE,49,0.0,2.0,91,0.00,,,0.00,Wunderground v.1.15,2013-06-18 11:34:00,
2013-06-18 06:39:00,62.3,59.6,29.93,NE,49,0.0,2.0,91,0.00,,,0.00,Wunderground v.1.15,2013-06-18 11:39:00,
2013-06-18 06:44:00,62.4,59.4,29.93,NE,49,1.0,1.0,90,0.00,,,0.00,Wunderground v.1.15,2013-06-18 11:44:00,
2013-06-18 06:49:00,62.6,59.6,29.93,NE,49,1.0,2.0,90,0.00,,,0.00,Wunderground v.1.15,2013-06-18 11:49:00,
2013-06-18 06:54:00,62.7,59.7,29.93,East,82,2.0,2.0,90,0.00,,,0.00,Wunderground v.1.15,2013-06-18 11:54:00,
2013-06-18 06:59:00,63.1,59.8,29.94,NE,49,2.0,2.0,89,0.00,,,0.00,Wunderground v.1.15,2013-06-18 11:59:00,
2013-06-18 07:04:00,63.6,60.0,29.94,East,83,0.0,1.0,88,0.00,,,0.00,Wunderground v.1.15,2013-06-18 12:04:00,
2013-06-18 07:09:00,64.2,59.9,29.93,ENE,73,3.0,3.0,86,0.00,,,0.00,Wunderground v.1.15,2013-06-18 12:09:00,
2013-06-18 07:14:00,64.7,59.4,29.93,East,86,3.0,5.0,83,0.00,,,0.00,Wunderground v.1.15,2013-06-18 12:14:00,
2013-06-18 07:19:00,65.2,59.9,29.93,ENE,76,3.0,5.0,83,0.00,,,0.00,Wunderground v.1.15,2013-06-18 12:19:00,
2013-06-18 07:24:00,65.5,59.5,29.93,East,101,1.0,3.0,81,0.00,,,0.00,Wunderground v.1.15,2013-06-18 12:24:00,
2013-06-18 07:29:00,65.8,59.8,29.94,East,84,0.0,7.0,81,0.00,,,0.00,Wunderground v.1.15,2013-06-18 12:29:00,
2013-06-18 07:34:00,66.2,59.8,29.94,East,96,2.0,3.0,80,0.00,,,0.00,Wunderground v.1.15,2013-06-18 12:34:00,
2013-06-18 07:39:00,66.5,59.8,29.94,East,81,2.0,4.0,79,0.00,,,0.00,Wunderground v.1.15,2013-06-18 12:39:00,
2013-06-18 07:44:00,66.8,59.7,29.94,ESE,103,5.0,5.0,78,0.00,,,0.00,Wunderground v.1.15,2013-06-18 12:44:00,
2013-06-18 07:49:00,67.0,59.5,29.94,ENE,76,2.0,5.0,77,0.00,,,0.00,Wunderground v.1.15,2013-06-18 12:49:00,
2013-06-18 07:54:00,67.0,59.2,29.93,East,87,1.0,7.0,76,0.00,,,0.00,Wunderground v.1.15,2013-06-18 12:54:00,
2013-06-18 07:59:00,67.0,59.5,29.94,ENE,78,2.0,7.0,77,0.00,,,0.00,Wunderground v.1.15,2013-06-18 12:59:00,
2013-06-18 08:04:00,67.3,59.8,29.94,East,96,1.0,4.0,77,0.00,,,0.00,Wunderground v.1.15,2013-06-18 13:04:00,
2013-06-18 08:09:00,67.7,60.2,29.94,East,89,1.0,3.0,77,0.00,,,0.00,Wunderground v.1.15,2013-06-18 13:09:00,
2013-06-18 08:14:00,68.0,60.2,29.94,ENE,77,2.0,4.0,76,0.00,,,0.00,Wunderground v.1.15,2013-06-18 13:14:00,
2013-06-18 08:19:00,68.1,59.9,29.93,East,87,1.0,5.0,75,0.00,,,0.00,Wunderground v.1.15,2013-06-18 13:19:00,
2013-06-18 08:24:00,68.1,59.9,29.93,ENE,78,1.0,3.0,75,0.00,,,0.00,Wunderground v.1.15,2013-06-18 13:24:00,
2013-06-18 08:29:00,68.3,59.7,29.93,ENE,74,3.0,5.0,74,0.00,,,0.00,Wunderground v.1.15,2013-06-18 13:29:00,
2013-06-18 08:34:00,68.3,59.7,29.93,ENE,78,3.0,4.0,74,0.00,,,0.00,Wunderground v.1.15,2013-06-18 13:34:00,
2013-06-18 08:39:00,68.4,60.2,29.93,ENE,78,2.0,6.0,75,0.00,,,0.00,Wunderground v.1.15,2013-06-18 13:39:00,
2013-06-18 08:44:00,68.6,60.0,29.93,East,79,1.0,4.0,74,0.00,,,0.00,Wunderground v.1.15,2013-06-18 13:44:00,
2013-06-18 08:49:00,68.7,60.1,29.93,ENE,71,3.0,5.0,74,0.00,,,0.00,Wunderground v.1.15,2013-06-18 13:49:00,
2013-06-18 08:54:00,68.8,59.8,29.93,East,96,4.0,5.0,73,0.00,,,0.00,Wunderground v.1.15,2013-06-18 13:54:00,
2013-06-18 08:59:00,69.0,60.4,29.93,East,81,3.0,5.0,74,0.00,,,0.00,Wunderground v.1.15,2013-06-18 13:59:00,
2013-06-18 09:04:00,69.1,60.1,29.94,East,87,1.0,5.0,73,0.00,,,0.00,Wunderground v.1.15,2013-06-18 14:04:00,
2013-06-18 09:09:00,69.3,60.3,29.94,ENE,60,1.0,2.0,73,0.00,,,0.00,Wunderground v.1.15,2013-06-18 14:09:00,
2013-06-18 09:14:00,69.5,60.1,29.93,East,93,1.0,4.0,72,0.00,,,0.00,Wunderground v.1.15,2013-06-18 14:14:00,
2013-06-18 09:19:00,69.8,60.0,29.93,ENE,74,2.0,7.0,71,0.00,,,0.00,Wunderground v.1.15,2013-06-18 14:19:00,
2013-06-18 09:24:00,69.9,60.1,29.94,East,97,4.0,5.0,71,0.00,,,0.00,Wunderground v.1.15,2013-06-18 14:24:00,
2013-06-18 09:29:00,70.0,59.8,29.94,ENE,62,2.0,5.0,70,0.00,,,0.00,Wunderground v.1.15,2013-06-18 14:29:00,
2013-06-18 09:35:00,70.2,60.4,29.94,East,79,2.0,4.0,71,0.00,,,0.00,Wunderground v.1.15,2013-06-18 14:35:00,
2013-06-18 09:40:00,70.6,61.1,29.94,ENE,64,3.0,5.0,72,0.00,,,0.00,Wunderground v.1.15,2013-06-18 14:40:00,
2013-06-18 09:45:00,70.9,60.2,29.95,East,80,1.0,5.0,69,0.00,,,0.00,Wunderground v.1.15,2013-06-18 14:45:00,
2013-06-18 09:50:00,71.2,60.9,29.95,East,84,3.0,5.0,70,0.00,,,0.00,Wunderground v.1.15,2013-06-18 14:50:00,
2013-06-18 09:55:00,71.3,59.8,29.95,East,91,1.0,6.0,67,0.00,,,0.00,Wunderground v.1.15,2013-06-18 14:55:00,
2013-06-18 10:00:00,71.7,61.4,29.95,ENE,77,2.0,2.0,70,0.00,,,0.00,Wunderground v.1.15,2013-06-18 15:00:00,
2013-06-18 10:05:00,71.9,60.3,29.95,NE,38,2.0,4.0,67,0.00,,,0.00,Wunderground v.1.15,2013-06-18 15:05:00,
2013-06-18 10:10:00,72.2,60.2,29.96,East,84,2.0,4.0,66,0.00,,,0.00,Wunderground v.1.15,2013-06-18 15:10:00,
2013-06-18 10:15:00,72.6,61.4,29.96,SSE,168,1.0,2.0,68,0.00,,,0.00,Wunderground v.1.15,2013-06-18 15:15:00,
2013-06-18 10:20:00,73.0,61.0,29.96,ENE,71,3.0,4.0,66,0.00,,,0.00,Wunderground v.1.15,2013-06-18 15:20:00,
2013-06-18 10:25:00,73.4,61.8,29.96,ESE,107,0.0,2.0,67,0.00,,,0.00,Wunderground v.1.15,2013-06-18 15:25:00,
2013-06-18 10:30:00,73.9,61.4,29.96,ESE,104,1.0,4.0,65,0.00,,,0.00,Wunderground v.1.15,2013-06-18 15:30:00,
2013-06-18 10:35:00,74.3,61.3,29.96,SE,130,1.0,2.0,64,0.00,,,0.00,Wunderground v.1.15,2013-06-18 15:35:00,
2013-06-18 10:40:00,74.8,61.4,29.96,ENE,57,1.0,5.0,63,0.00,,,0.00,Wunderground v.1.15,2013-06-18 15:40:00,
2013-06-18 10:45:00,74.9,61.0,29.97,East,86,3.0,4.0,62,0.00,,,0.00,Wunderground v.1.15,2013-06-18 15:45:00,
2013-06-18 10:50:00,75.1,63.4,29.97,NE,41,0.0,5.0,67,0.00,,,0.00,Wunderground v.1.15,2013-06-18 15:50:00,
2013-06-18 10:55:00,75.3,61.4,29.96,East,82,0.0,4.0,62,0.00,,,0.00,Wunderground v.1.15,2013-06-18 15:55:00,
2013-06-18 11:00:00,75.4,61.9,29.96,NE,36,1.0,2.0,63,0.00,,,0.00,Wunderground v.1.15,2013-06-18 16:00:00,
2013-06-18 11:05:00,75.5,62.9,29.97,NNE,21,1.0,3.0,65,0.00,,,0.00,Wunderground v.1.15,2013-06-18 16:05:00,
2013-06-18 11:10:00,75.8,62.3,29.97,South,173,1.0,2.0,63,0.00,,,0.00,Wunderground v.1.15,2013-06-18 16:10:00,
2013-06-18 11:15:00,76.1,61.7,29.97,East,89,0.0,4.0,61,0.00,,,0.00,Wunderground v.1.15,2013-06-18 16:15:00,
2013-06-18 11:20:00,76.2,62.2,29.96,NE,36,2.0,5.0,62,0.00,,,0.00,Wunderground v.1.15,2013-06-18 16:20:00,
2013-06-18 11:25:00,76.2,61.3,29.97,ENE,78,1.0,6.0,60,0.00,,,0.00,Wunderground v.1.15,2013-06-18 16:25:00,
2013-06-18 11:30:00,76.0,61.1,29.97,NNE,25,2.0,6.0,60,0.00,,,0.00,Wunderground v.1.15,2013-06-18 16:30:00,
2013-06-18 11:35:00,75.7,60.4,29.97,NNE,15,3.0,5.0,59,0.00,,,0.00,Wunderground v.1.15,2013-06-18 16:35:00,
2013-06-18 11:40:00,75.5,60.2,29.97,NNE,30,2.0,5.0,59,0.00,,,0.00,Wunderground v.1.15,2013-06-18 16:40:00,
2013-06-18 11:45:00,75.7,60.8,29.97,WSW,249,0.0,3.0,60,0.00,,,0.00,Wunderground v.1.15,2013-06-18 16:45:00,
2013-06-18 11:50:00,76.0,62.5,29.97,North,350,2.0,4.0,63,0.00,,,0.00,Wunderground v.1.15,2013-06-18 16:50:00,
2013-06-18 11:55:00,75.9,60.5,29.97,NE,46,1.0,6.0,59,0.00,,,0.00,Wunderground v.1.15,2013-06-18 16:55:00,
2013-06-18 12:00:00,75.7,61.8,29.96,NNE,15,6.0,12.0,62,0.00,,,0.00,Wunderground v.1.15,2013-06-18 17:00:00,
2013-06-18 12:05:00,75.6,61.2,29.96,North,360,2.0,5.0,61,0.00,,,0.00,Wunderground v.1.15,2013-06-18 17:05:00,
2013-06-18 12:10:00,75.9,61.5,29.96,South,175,1.0,3.0,61,0.00,,,0.00,Wunderground v.1.15,2013-06-18 17:10:00,
2013-06-18 12:15:00,76.1,61.7,29.96,ENE,77,1.0,9.0,61,0.00,,,0.00,Wunderground v.1.15,2013-06-18 17:15:00,
2013-06-18 12:21:00,76.2,60.3,29.96,ENE,72,2.0,9.0,58,0.00,,,0.00,Wunderground v.1.15,2013-06-18 17:21:00,
2013-06-18 12:26:00,76.5,61.6,29.96,ESE,111,4.0,6.0,60,0.00,,,0.00,Wunderground v.1.15,2013-06-18 17:26:00,
2013-06-18 12:32:00,76.7,62.7,29.96,ENE,67,2.0,2.0,62,0.00,,,0.00,Wunderground v.1.15,2013-06-18 17:32:00,
2013-06-18 12:38:00,76.9,60.0,29.96,NNE,13,1.0,5.0,56,0.00,,,0.00,Wunderground v.1.15,2013-06-18 17:38:00,
2013-06-18 12:43:00,76.9,62.0,29.96,SE,124,1.0,2.0,60,0.00,,,0.00,Wunderground v.1.15,2013-06-18 17:43:00,
2013-06-18 12:48:00,77.2,61.8,29.96,East,80,1.0,3.0,59,0.00,,,0.00,Wunderground v.1.15,2013-06-18 17:48:00,
2013-06-18 12:53:00,77.4,63.4,29.96,North,5,2.0,2.0,62,0.00,,,0.00,Wunderground v.1.15,2013-06-18 17:53:00,
2013-06-18 12:58:00,77.6,62.6,29.95,East,99,2.0,6.0,60,0.00,,,0.00,Wunderground v.1.15,2013-06-18 17:58:00,
2013-06-18 13:03:00,77.8,62.3,29.95,NE,40,1.0,2.0,59,0.00,,,0.00,Wunderground v.1.15,2013-06-18 18:03:00,
2013-06-18 13:08:00,78.1,63.1,29.96,East,94,1.0,4.0,60,0.00,,,0.00,Wunderground v.1.15,2013-06-18 18:08:00,
2013-06-18 13:13:00,78.4,62.9,29.96,East,93,2.0,2.0,59,0.00,,,0.00,Wunderground v.1.15,2013-06-18 18:13:00,
2013-06-18 13:18:00,78.6,64.0,29.95,East,86,1.0,4.0,61,0.00,,,0.00,Wunderground v.1.15,2013-06-18 18:18:00,
2013-06-18 13:23:00,78.8,61.8,29.95,East,93,1.0,2.0,56,0.00,,,0.00,Wunderground v.1.15,2013-06-18 18:23:00,
2013-06-18 13:28:00,78.8,62.3,29.96,NNE,31,1.0,6.0,57,0.00,,,0.00,Wunderground v.1.15,2013-06-18 18:28:00,
2013-06-18 13:33:00,78.7,61.7,29.96,WNW,298,2.0,3.0,56,0.00,,,0.00,Wunderground v.1.15,2013-06-18 18:33:00,
2013-06-18 13:38:00,78.6,62.6,29.95,NNE,12,3.0,4.0,58,0.00,,,0.00,Wunderground v.1.15,2013-06-18 18:38:00,
2013-06-18 13:43:00,78.8,62.8,29.95,ESE,119,2.0,4.0,58,0.00,,,0.00,Wunderground v.1.15,2013-06-18 18:43:00,
2013-06-18 13:48:00,79.1,62.1,29.95,East,86,2.0,4.0,56,0.00,,,0.00,Wunderground v.1.15,2013-06-18 18:48:00,
2013-06-18 13:53:00,79.3,62.7,29.95,ENE,63,1.0,4.0,57,0.00,,,0.00,Wunderground v.1.15,2013-06-18 18:53:00,
2013-06-18 13:58:00,79.4,61.8,29.95,East,84,3.0,4.0,55,0.00,,,0.00,Wunderground v.1.15,2013-06-18 18:58:00,
2013-06-18 14:03:00,79.5,62.9,29.95,ENE,69,3.0,4.0,57,0.00,,,0.00,Wunderground v.1.15,2013-06-18 19:03:00,
2013-06-18 14:08:00,79.6,62.0,29.95,North,360,3.0,4.0,55,0.00,,,0.00,Wunderground v.1.15,2013-06-18 19:08:00,
2013-06-18 14:13:00,79.7,63.6,29.95,ENE,64,0.0,2.0,58,0.00,,,0.00,Wunderground v.1.15,2013-06-18 19:13:00,
2013-06-18 14:18:00,80.1,63.0,29.95,East,98,2.0,4.0,56,0.00,,,0.00,Wunderground v.1.15,2013-06-18 19:18:00,
2013-06-18 14:23:00,80.3,61.6,29.94,NNE,19,2.0,3.0,53,0.00,,,0.00,Wunderground v.1.15,2013-06-18 19:23:00,
2013-06-18 14:28:00,80.2,63.6,29.94,East,80,1.0,6.0,57,0.00,,,0.00,Wunderground v.1.15,2013-06-18 19:28:00,
2013-06-18 14:33:00,80.3,62.7,29.95,East,87,2.0,5.0,55,0.00,,,0.00,Wunderground v.1.15,2013-06-18 19:33:00,
2013-06-18 14:38:00,80.3,62.1,29.95,East,88,1.0,5.0,54,0.00,,,0.00,Wunderground v.1.15,2013-06-18 19:38:00,
2013-06-18 14:43:00,80.5,61.8,29.95,West,270,1.0,5.0,53,0.00,,,0.00,Wunderground v.1.15,2013-06-18 19:43:00,
2013-06-18 14:48:00,80.7,63.0,29.95,East,95,0.0,5.0,55,0.00,,,0.00,Wunderground v.1.15,2013-06-18 19:48:00,
2013-06-18 14:53:00,81.0,62.3,29.95,ENE,67,1.0,2.0,53,0.00,,,0.00,Wunderground v.1.15,2013-06-18 19:53:00,
2013-06-18 14:58:00,81.2,62.4,29.95,SE,129,1.0,4.0,53,0.00,,,0.00,Wunderground v.1.15,2013-06-18 19:58:00,
2013-06-18 15:04:00,81.3,62.0,29.95,ENE,65,1.0,4.0,52,0.00,,,0.00,Wunderground v.1.15,2013-06-18 20:04:00,
2013-06-18 15:09:00,81.2,61.4,29.94,East,100,1.0,2.0,51,0.00,,,0.00,Wunderground v.1.15,2013-06-18 20:09:00,
2013-06-18 15:14:00,81.4,62.6,29.95,ENE,71,3.0,3.0,53,0.00,,,0.00,Wunderground v.1.15,2013-06-18 20:14:00,
2013-06-18 15:19:00,81.4,62.6,29.94,East,84,1.0,4.0,53,0.00,,,0.00,Wunderground v.1.15,2013-06-18 20:19:00,
2013-06-18 15:24:00,81.6,62.3,29.94,ESE,121,1.0,5.0,52,0.00,,,0.00,Wunderground v.1.15,2013-06-18 20:24:00,
2013-06-18 15:29:00,81.0,61.7,29.94,ESE,114,2.0,5.0,52,0.00,,,0.00,Wunderground v.1.15,2013-06-18 20:29:00,
2013-06-18 15:34:00,80.2,61.0,29.94,East,82,2.0,4.0,52,0.00,,,0.00,Wunderground v.1.15,2013-06-18 20:34:00,
2013-06-18 15:39:00,79.3,60.7,29.94,NE,53,2.0,5.0,53,0.00,,,0.00,Wunderground v.1.15,2013-06-18 20:39:00,
2013-06-18 15:44:00,78.8,61.3,29.94,East,80,1.0,4.0,55,0.00,,,0.00,Wunderground v.1.15,2013-06-18 20:44:00,
2013-06-18 15:49:00,79.0,63.9,29.94,ENE,78,0.0,5.0,60,0.00,,,0.00,Wunderground v.1.15,2013-06-18 20:49:00,
2013-06-18 15:54:00,79.8,63.2,29.94,ENE,76,2.0,3.0,57,0.00,,,0.00,Wunderground v.1.15,2013-06-18 20:54:00,
2013-06-18 15:59:00,80.5,62.8,29.93,NE,44,3.0,6.0,55,0.00,,,0.00,Wunderground v.1.15,2013-06-18 20:59:00,
2013-06-18 16:04:00,81.0,63.3,29.94,NE,38,2.0,3.0,55,0.00,,,0.00,Wunderground v.1.15,2013-06-18 21:04:00,
2013-06-18 16:09:00,80.9,61.6,29.94,SE,141,2.0,2.0,52,0.00,,,0.00,Wunderground v.1.15,2013-06-18 21:09:00,
2013-06-18 16:14:00,80.5,60.1,29.94,East,89,2.0,4.0,50,0.00,,,0.00,Wunderground v.1.15,2013-06-18 21:14:00,
2013-06-18 16:19:00,80.4,61.2,29.93,NNE,21,4.0,5.0,52,0.00,,,0.00,Wunderground v.1.15,2013-06-18 21:19:00,
2013-06-18 16:24:00,80.8,62.1,29.93,NE,51,2.0,3.0,53,0.00,,,0.00,Wunderground v.1.15,2013-06-18 21:24:00,
2013-06-18 16:29:00,80.5,60.7,29.93,ENE,73,1.0,7.0,51,0.00,,,0.00,Wunderground v.1.15,2013-06-18 21:29:00,
2013-06-18 16:34:00,79.9,60.7,29.93,NE,36,2.0,4.0,52,0.00,,,0.00,Wunderground v.1.15,2013-06-18 21:34:00,
2013-06-18 16:39:00,80.1,62.5,29.93,NNE,21,2.0,4.0,55,0.00,,,0.00,Wunderground v.1.15,2013-06-18 21:39:00,
2013-06-18 16:44:00,80.6,61.9,29.93,NNE,14,1.0,3.0,53,0.00,,,0.00,Wunderground v.1.15,2013-06-18 21:44:00,
2013-06-18 16:49:00,80.9,60.5,29.93,NNE,12,1.0,7.0,50,0.00,,,0.00,Wunderground v.1.15,2013-06-18 21:49:00,
2013-06-18 16:54:00,81.3,62.5,29.93,NE,44,3.0,3.0,53,0.00,,,0.00,Wunderground v.1.15,2013-06-18 21:54:00,
2013-06-18 16:59:00,81.5,63.3,29.93,East,95,1.0,5.0,54,0.00,,,0.00,Wunderground v.1.15,2013-06-18 21:59:00,
2013-06-18 17:04:00,81.8,64.1,29.93,East,82,2.0,2.0,55,0.00,,,0.00,Wunderground v.1.15,2013-06-18 22:04:00,
2013-06-18 17:09:00,82.1,62.7,29.93,NE,44,2.0,2.0,52,0.00,,,0.00,Wunderground v.1.15,2013-06-18 22:09:00,
2013-06-18 17:14:00,82.0,61.0,29.93,East,84,3.0,5.0,49,0.00,,,0.00,Wunderground v.1.15,2013-06-18 22:14:00,
2013-06-18 17:19:00,81.0,60.0,29.93,ENE,59,1.0,5.0,49,0.00,,,0.00,Wunderground v.1.15,2013-06-18 22:19:00,
2013-06-18 17:24:00,80.1,60.3,29.93,ENE,76,3.0,4.0,51,0.00,,,0.00,Wunderground v.1.15,2013-06-18 22:24:00,
2013-06-18 17:29:00,79.9,61.2,29.93,ENE,67,2.0,5.0,53,0.00,,,0.00,Wunderground v.1.15,2013-06-18 22:29:00,
2013-06-18 17:34:00,80.3,60.5,29.93,East,84,1.0,4.0,51,0.00,,,0.00,Wunderground v.1.15,2013-06-18 22:34:00,
2013-06-18 17:39:00,80.7,59.8,29.93,ENE,76,0.0,4.0,49,0.00,,,0.00,Wunderground v.1.15,2013-06-18 22:39:00,
2013-06-18 17:44:00,81.3,62.0,29.93,East,101,2.0,2.0,52,0.00,,,0.00,Wunderground v.1.15,2013-06-18 22:44:00,
2013-06-18 17:49:00,81.5,61.1,29.93,ENE,78,1.0,5.0,50,0.00,,,0.00,Wunderground v.1.15,2013-06-18 22:49:00,
2013-06-18 17:54:00,81.6,61.7,29.93,East,80,0.0,2.0,51,0.00,,,0.00,Wunderground v.1.15,2013-06-18 22:54:00,
2013-06-18 18:00:00,81.9,62.0,29.93,ENE,73,1.0,1.0,51,0.00,,,0.00,Wunderground v.1.15,2013-06-18 23:00:00,
2013-06-18 18:05:00,81.9,59.7,29.93,ESE,108,2.0,5.0,47,0.00,,,0.00,Wunderground v.1.15,2013-06-18 23:05:00,
2013-06-18 18:10:00,81.4,59.8,29.92,ENE,75,1.0,2.0,48,0.00,,,0.00,Wunderground v.1.15,2013-06-18 23:10:00,
2013-06-18 18:15:00,81.1,59.6,29.92,ESE,123,4.0,4.0,48,0.00,,,0.00,Wunderground v.1.15,2013-06-18 23:15:00,
2013-06-18 18:20:00,81.0,60.0,29.92,East,83,3.0,6.0,49,0.00,,,0.00,Wunderground v.1.15,2013-06-18 23:20:00,
2013-06-18 18:25:00,80.6,60.8,29.92,NE,35,3.0,4.0,51,0.00,,,0.00,Wunderground v.1.15,2013-06-18 23:25:00,
2013-06-18 18:30:00,80.6,61.3,29.92,ENE,73,3.0,4.0,52,0.00,,,0.00,Wunderground v.1.15,2013-06-18 23:30:00,
2013-06-18 18:35:00,80.5,60.7,29.93,East,82,1.0,3.0,51,0.00,,,0.00,Wunderground v.1.15,2013-06-18 23:35:00,
2013-06-18 18:40:00,80.4,61.2,29.93,ESE,109,2.0,3.0,52,0.00,,,0.00,Wunderground v.1.15,2013-06-18 23:40:00,
2013-06-18 18:45:00,80.1,60.3,29.93,East,86,1.0,4.0,51,0.00,,,0.00,Wunderground v.1.15,2013-06-18 23:45:00,
2013-06-18 18:50:00,79.6,59.9,29.93,ENE,76,2.0,4.0,51,0.00,,,0.00,Wunderground v.1.15,2013-06-18 23:50:00,
2013-06-18 18:55:00,79.1,60.5,29.93,ENE,78,1.0,2.0,53,0.00,,,0.00,Wunderground v.1.15,2013-06-18 23:55:00,
2013-06-18 19:00:00,78.9,59.8,29.93,East,83,3.0,3.0,52,0.00,,,0.00,Wunderground v.1.15,2013-06-19 00:00:00,
2013-06-18 19:05:00,78.7,60.1,29.93,East,94,4.0,4.0,53,0.00,,,0.00,Wunderground v.1.15,2013-06-19 00:05:00,
2013-06-18 19:10:00,78.3,60.3,29.93,East,80,1.0,2.0,54,0.00,,,0.00,Wunderground v.1.15,2013-06-19 00:10:00,
2013-06-18 19:15:00,77.9,60.4,29.93,East,85,0.0,2.0,55,0.00,,,0.00,Wunderground v.1.15,2013-06-19 00:15:00,
2013-06-18 19:20:00,77.6,60.7,29.93,East,90,1.0,5.0,56,0.00,,,0.00,Wunderground v.1.15,2013-06-19 00:20:00,
2013-06-18 19:25:00,77.6,60.2,29.93,East,90,1.0,1.0,55,0.00,,,0.00,Wunderground v.1.15,2013-06-19 00:25:00,
2013-06-18 19:30:00,77.7,59.7,29.93,East,90,0.0,1.0,54,0.00,,,0.00,Wunderground v.1.15,2013-06-19 00:30:00,
2013-06-18 19:35:00,78.0,60.5,29.93,East,90,0.0,1.0,55,0.00,,,0.00,Wunderground v.1.15,2013-06-19 00:35:00,
2013-06-18 19:40:00,78.4,61.4,29.93,East,97,0.0,2.0,56,0.00,,,0.00,Wunderground v.1.15,2013-06-19 00:40:00,
2013-06-18 19:45:00,78.4,59.9,29.93,East,84,2.0,3.0,53,0.00,,,0.00,Wunderground v.1.15,2013-06-19 00:45:00,
2013-06-18 19:50:00,78.0,59.5,29.93,ENE,67,4.0,6.0,53,0.00,,,0.00,Wunderground v.1.15,2013-06-19 00:50:00,
2013-06-18 19:55:00,77.5,59.0,29.93,East,86,2.0,3.0,53,0.00,,,0.00,Wunderground v.1.15,2013-06-19 00:55:00,
2013-06-18 20:00:00,77.1,59.7,29.93,East,85,1.0,2.0,55,0.00,,,0.00,Wunderground v.1.15,2013-06-19 01:00:00,
2013-06-18 20:05:00,76.7,59.3,29.93,East,97,4.0,6.0,55,0.00,,,0.00,Wunderground v.1.15,2013-06-19 01:05:00,
2013-06-18 20:10:00,76.2,59.4,29.93,East,88,2.0,3.0,56,0.00,,,0.00,Wunderground v.1.15,2013-06-19 01:10:00,
2013-06-18 20:15:00,75.9,59.1,29.93,East,90,2.0,4.0,56,0.00,,,0.00,Wunderground v.1.15,2013-06-19 01:15:00,
2013-06-18 20:20:00,75.6,59.3,29.93,East,82,1.0,4.0,57,0.00,,,0.00,Wunderground v.1.15,2013-06-19 01:20:00,
2013-06-18 20:25:00,75.2,59.4,29.93,ENE,67,1.0,3.0,58,0.00,,,0.00,Wunderground v.1.15,2013-06-19 01:25:00,
2013-06-18 20:30:00,74.8,59.0,29.93,ENE,74,2.0,3.0,58,0.00,,,0.00,Wunderground v.1.15,2013-06-19 01:30:00,
2013-06-18 20:35:00,74.4,59.1,29.93,East,88,2.0,4.0,59,0.00,,,0.00,Wunderground v.1.15,2013-06-19 01:35:00,
2013-06-18 20:40:00,74.1,58.9,29.94,East,82,3.0,4.0,59,0.00,,,0.00,Wunderground v.1.15,2013-06-19 01:40:00,
2013-06-18 20:45:00,73.7,58.9,29.94,East,81,2.0,5.0,60,0.00,,,0.00,Wunderground v.1.15,2013-06-19 01:45:00,
2013-06-18 20:50:00,73.4,59.1,29.94,East,86,1.0,5.0,61,0.00,,,0.00,Wunderground v.1.15,2013-06-19 01:50:00,
2013-06-18 20:55:00,73.1,59.3,29.94,ENE,75,2.0,4.0,62,0.00,,,0.00,Wunderground v.1.15,2013-06-19 01:55:00,
2013-06-18 21:00:00,72.8,59.5,29.94,East,88,1.0,2.0,63,0.00,,,0.00,Wunderground v.1.15,2013-06-19 02:00:00,
2013-06-18 21:05:00,72.5,59.2,29.94,East,92,0.0,1.0,63,0.00,,,0.00,Wunderground v.1.15,2013-06-19 02:05:00,
2013-06-18 21:10:00,72.2,59.8,29.95,East,90,1.0,2.0,65,0.00,,,0.00,Wunderground v.1.15,2013-06-19 02:10:00,
2013-06-18 21:15:00,71.8,59.8,29.94,East,89,1.0,2.0,66,0.00,,,0.00,Wunderground v.1.15,2013-06-19 02:15:00,
2013-06-18 21:20:00,71.4,59.9,29.95,East,82,0.0,2.0,67,0.00,,,0.00,Wunderground v.1.15,2013-06-19 02:20:00,
2013-06-18 21:25:00,71.0,59.9,29.95,East,82,1.0,2.0,68,0.00,,,0.00,Wunderground v.1.15,2013-06-19 02:25:00,
2013-06-18 21:30:00,70.6,59.9,29.95,East,82,0.0,2.0,69,0.00,,,0.00,Wunderground v.1.15,2013-06-19 02:30:00,
2013-06-18 21:35:00,70.3,59.6,29.95,East,82,1.0,1.0,69,0.00,,,0.00,Wunderground v.1.15,2013-06-19 02:35:00,
2013-06-18 21:40:00,70.0,59.8,29.95,East,82,0.0,2.0,70,0.00,,,0.00,Wunderground v.1.15,2013-06-19 02:40:00,
2013-06-18 21:45:00,69.8,59.6,29.96,East,82,0.0,1.0,70,0.00,,,0.00,Wunderground v.1.15,2013-06-19 02:45:00,
2013-06-18 21:50:00,69.6,59.8,29.96,East,82,0.0,1.0,71,0.00,,,0.00,Wunderground v.1.15,2013-06-19 02:50:00,
2013-06-18 21:55:00,69.3,59.9,29.96,East,82,0.0,1.0,72,0.00,,,0.00,Wunderground v.1.15,2013-06-19 02:55:00,
2013-06-18 22:00:00,69.0,59.6,29.96,East,82,0.0,1.0,72,0.00,,,0.00,Wunderground v.1.15,2013-06-19 03:00:00,
2013-06-18 22:05:00,68.8,59.8,29.97,East,82,0.0,1.0,73,0.00,,,0.00,Wunderground v.1.15,2013-06-19 03:05:00,
2013-06-18 22:10:00,68.6,59.6,29.97,East,82,0.0,0.0,73,0.00,,,0.00,Wunderground v.1.15,2013-06-19 03:10:00,
2013-06-18 22:15:00,68.4,59.8,29.97,East,82,1.0,2.0,74,0.00,,,0.00,Wunderground v.1.15,2013-06-19 03:15:00,
2013-06-18 22:20:00,68.1,59.9,29.97,East,83,1.0,2.0,75,0.00,,,0.00,Wunderground v.1.15,2013-06-19 03:20:00,
2013-06-18 22:25:00,67.9,59.7,29.97,East,83,1.0,2.0,75,0.00,,,0.00,Wunderground v.1.15,2013-06-19 03:25:00,
2013-06-18 22:30:00,67.7,59.5,29.97,ENE,76,1.0,2.0,75,0.00,,,0.00,Wunderground v.1.15,2013-06-19 03:30:00,
2013-06-18 22:35:00,67.6,59.8,29.97,ENE,78,0.0,2.0,76,0.00,,,0.00,Wunderground v.1.15,2013-06-19 03:35:00,
2013-06-18 22:40:00,67.5,59.7,29.97,ENE,77,0.0,2.0,76,0.00,,,0.00,Wunderground v.1.15,2013-06-19 03:40:00,
2013-06-18 22:45:00,67.3,59.8,29.97,ENE,77,0.0,1.0,77,0.00,,,0.00,Wunderground v.1.15,2013-06-19 03:45:00,
2013-06-18 22:50:00,67.1,59.6,29.97,ENE,77,0.0,2.0,77,0.00,,,0.00,Wunderground v.1.15,2013-06-19 03:50:00,
2013-06-18 22:55:00,66.8,59.7,29.97,ENE,77,0.0,0.0,78,0.00,,,0.00,Wunderground v.1.15,2013-06-19 03:55:00,
2013-06-18 23:00:00,66.6,59.5,29.97,ENE,77,0.0,0.0,78,0.00,,,0.00,Wunderground v.1.15,2013-06-19 04:00:00,
2013-06-18 23:02:00,66.5,59.4,29.97,ENE,77,0.0,0.0,78,0.00,,,0.00,Wunderground v.1.15,2013-06-19 04:02:00,
2013-06-18 23:03:00,66.5,59.4,29.97,ENE,77,1.0,1.0,78,0.00,,,0.00,Wunderground v.1.15,2013-06-19 04:03:00,
2013-06-18 23:08:00,66.3,59.6,29.97,ENE,77,0.0,2.0,79,0.00,,,0.00,Wunderground v.1.15,2013-06-19 04:08:00,
2013-06-18 23:13:00,66.1,59.4,29.97,ENE,77,0.0,0.0,79,0.00,,,0.00,Wunderground v.1.15,2013-06-19 04:13:00,
2013-06-18 23:18:00,65.9,59.6,29.97,ENE,77,0.0,0.0,80,0.00,,,0.00,Wunderground v.1.15,2013-06-19 04:18:00,
2013-06-18 23:23:00,65.8,59.1,29.97,ENE,77,0.0,1.0,79,0.00,,,0.00,Wunderground v.1.15,2013-06-19 04:23:00,
2013-06-18 23:28:00,65.9,59.2,29.98,ENE,77,0.0,1.0,79,0.00,,,0.00,Wunderground v.1.15,2013-06-19 04:28:00,
2013-06-18 23:33:00,65.9,59.2,29.98,ENE,77,0.0,0.0,79,0.00,,,0.00,Wunderground v.1.15,2013-06-19 04:33:00,
2013-06-18 23:38:00,65.9,59.6,29.98,ENE,77,0.0,0.0,80,0.00,,,0.00,Wunderground v.1.15,2013-06-19 04:38:00,
2013-06-18 23:43:00,65.8,59.5,29.98,ENE,77,0.0,0.0,80,0.00,,,0.00,Wunderground v.1.15,2013-06-19 04:43:00,
2013-06-18 23:48:00,65.6,59.3,29.98,ENE,77,0.0,0.0,80,0.00,,,0.00,Wunderground v.1.15,2013-06-19 04:48:00,
2013-06-18 23:53:00,65.5,59.2,29.98,ENE,77,0.0,0.0,80,0.00,,,0.00,Wunderground v.1.15,2013-06-19 04:53:00,